TimeEDT,TemperatureF,Dew PointF,Humidity,Sea Level PressureIn,VisibilityMPH,Wind Direction,Wind SpeedMPH,Gust SpeedMPH,PrecipitationIn,Events,Conditions,WindDirDegrees,DateUTC
12:14 AM,34.9,29.1,79,30.10,10.0,Calm,Calm,-,N/A,,Clear,0,2012-11-03 04:14:00
12:33 AM,33.8,29.1,83,30.10,10.0,Calm,Calm,-,N/A,,Clear,0,2012-11-03 04:33:00
12:54 AM,32.9,29.1,86,30.10,10.0,Calm,Calm,-,N/A,,Clear,0,2012-11-03 04:54:00
1:14 AM,32.2,28.9,88,30.11,10.0,Calm,Calm,-,N/A,,Scattered Clouds,0,2012-11-03 05:14:00
1:33 AM,31.1,28.2,89,30.11,10.0,Calm,Calm,-,N/A,,Clear,0,2012-11-03 05:33:00
1:54 AM,30.7,28.0,90,30.12,10.0,Calm,Calm,-,N/A,,Clear,0,2012-11-03 05:54:00
2:13 AM,30.7,28.4,91,30.12,10.0,Calm,Calm,-,N/A,,Clear,0,2012-11-03 06:13:00
2:33 AM,30.4,28.0,91,30.12,10.0,Calm,Calm,-,N/A,,Clear,0,2012-11-03 06:33:00
2:53 AM,29.8,27.7,92,30.12,10.0,Calm,Calm,-,N/A,,Clear,0,2012-11-03 06:53:00
3:14 AM,29.1,27.0,92,30.13,10.0,Calm,Calm,-,N/A,,Clear,0,2012-11-03 07:14:00
3:34 AM,28.6,26.6,92,30.13,10.0,Calm,Calm,-,N/A,,Clear,0,2012-11-03 07:34:00
3:53 AM,28.8,26.8,92,30.14,10.0,Calm,Calm,-,N/A,,Mostly Cloudy,0,2012-11-03 07:53:00
4:14 AM,30.4,28.2,92,30.14,10.0,West,3.5,-,N/A,,Overcast,280,2012-11-03 08:14:00
4:33 AM,30.9,28.8,92,30.14,10.0,Calm,Calm,-,N/A,,Overcast,0,2012-11-03 08:33:00
4:53 AM,30.9,28.8,92,30.14,10.0,Calm,Calm,-,N/A,,Overcast,0,2012-11-03 08:53:00
5:14 AM,29.5,27.3,92,30.14,10.0,Calm,Calm,-,N/A,,Scattered Clouds,0,2012-11-03 09:14:00
5:33 AM,29.8,27.7,92,30.14,10.0,Calm,Calm,-,N/A,,Clear,0,2012-11-03 09:33:00
5:53 AM,29.8,27.7,92,30.14,10.0,Calm,Calm,-,N/A,,Clear,0,2012-11-03 09:53:00
6:14 AM,30.0,27.9,92,30.14,10.0,North,3.5,-,N/A,,Clear,350,2012-11-03 10:14:00
6:33 AM,29.8,27.7,92,30.15,10.0,North,3.5,-,N/A,,Clear,350,2012-11-03 10:33:00
6:53 AM,29.8,27.5,91,30.14,10.0,North,3.5,-,N/A,,Clear,360,2012-11-03 10:53:00
7:14 AM,29.8,27.3,90,30.15,10.0,Calm,Calm,-,N/A,,Clear,0,2012-11-03 11:14:00
7:33 AM,29.5,27.0,90,30.14,10.0,Calm,Calm,-,N/A,,Clear,0,2012-11-03 11:33:00
7:53 AM,28.9,26.6,91,30.15,10.0,Calm,Calm,-,N/A,,Clear,0,2012-11-03 11:53:00
8:13 AM,28.9,26.6,91,30.15,10.0,Calm,Calm,-,N/A,,Clear,0,2012-11-03 12:13:00
8:33 AM,28.8,26.8,92,30.15,10.0,Calm,Calm,-,N/A,,Clear,0,2012-11-03 12:33:00
8:54 AM,28.4,26.2,92,30.16,10.0,Calm,Calm,-,N/A,,Mostly Cloudy,0,2012-11-03 12:54:00
9:13 AM,30.0,27.9,92,30.17,10.0,Calm,Calm,-,N/A,,Overcast,0,2012-11-03 13:13:00
9:33 AM,31.5,29.1,91,30.17,10.0,Calm,Calm,-,N/A,,Overcast,0,2012-11-03 13:33:00
9:54 AM,32.7,29.5,88,30.18,10.0,NNE,3.5,-,N/A,,Overcast,20,2012-11-03 13:54:00
10:13 AM,33.3,29.5,86,30.19,10.0,NW,4.6,-,N/A,,Overcast,320,2012-11-03 14:13:00
10:34 AM,33.6,29.3,84,30.19,10.0,Calm,Calm,-,N/A,,Overcast,0,2012-11-03 14:34:00
10:54 AM,33.6,28.9,83,30.19,10.0,North,3.5,-,N/A,,Overcast,360,2012-11-03 14:54:00
11:13 AM,34.5,29.3,81,30.19,10.0,NE,4.6,-,N/A,,Overcast,40,2012-11-03 15:13:00
11:34 AM,34.9,28.8,78,30.19,10.0,NE,3.5,-,N/A,,Overcast,40,2012-11-03 15:34:00
11:53 AM,35.2,28.6,77,30.20,10.0,North,4.6,-,N/A,,Overcast,360,2012-11-03 15:53:00
12:13 PM,35.4,28.2,75,30.20,10.0,Calm,Calm,-,N/A,,Overcast,0,2012-11-03 16:13:00
12:34 PM,36.0,28.0,73,30.19,10.0,NW,3.5,-,N/A,,Overcast,320,2012-11-03 16:34:00
12:53 PM,36.0,28.0,73,30.18,10.0,Calm,Calm,-,N/A,,Overcast,0,2012-11-03 16:53:00
1:13 PM,36.3,28.4,73,30.19,10.0,NNW,3.5,-,N/A,,Overcast,330,2012-11-03 17:13:00
1:34 PM,36.9,28.2,71,30.19,10.0,NW,4.6,-,N/A,,Overcast,310,2012-11-03 17:34:00
1:53 PM,36.7,28.2,71,30.17,10.0,Calm,Calm,-,N/A,,Overcast,0,2012-11-03 17:53:00
2:13 PM,36.9,28.2,71,30.18,10.0,WNW,4.6,-,N/A,,Overcast,290,2012-11-03 18:13:00
2:34 PM,36.5,27.9,71,30.18,10.0,NW,4.6,-,N/A,,Overcast,320,2012-11-03 18:34:00
2:53 PM,37.2,28.6,71,30.17,10.0,NW,3.5,-,N/A,,Overcast,320,2012-11-03 18:53:00
3:13 PM,36.5,27.7,70,30.16,10.0,North,4.6,-,N/A,,Overcast,350,2012-11-03 19:13:00
3:34 PM,36.9,28.0,70,30.15,10.0,NE,3.5,-,N/A,,Overcast,50,2012-11-03 19:34:00
3:53 PM,36.5,27.7,70,30.15,10.0,Calm,Calm,-,N/A,,Overcast,0,2012-11-03 19:53:00
4:13 PM,36.5,27.3,69,30.16,10.0,North,5.8,-,N/A,,Overcast,10,2012-11-03 20:13:00
4:34 PM,36.5,27.1,69,30.17,10.0,Calm,Calm,-,N/A,,Overcast,0,2012-11-03 20:34:00
4:53 PM,37.0,27.0,67,30.16,10.0,Calm,Calm,-,N/A,,Overcast,0,2012-11-03 20:53:00
5:14 PM,36.0,26.2,68,30.15,10.0,Calm,Calm,-,N/A,,Scattered Clouds,0,2012-11-03 21:14:00
5:34 PM,36.0,26.6,69,30.15,10.0,Calm,Calm,-,N/A,,Mostly Cloudy,0,2012-11-03 21:34:00
5:53 PM,36.0,26.8,69,30.15,10.0,Calm,Calm,-,N/A,,Mostly Cloudy,0,2012-11-03 21:53:00
6:14 PM,35.8,26.4,69,30.16,10.0,Calm,Calm,-,N/A,,Mostly Cloudy,0,2012-11-03 22:14:00
6:33 PM,35.8,27.0,70,30.16,10.0,Calm,Calm,-,N/A,,Overcast,0,2012-11-03 22:33:00
6:53 PM,35.4,27.0,71,30.15,10.0,Calm,Calm,-,N/A,,Overcast,0,2012-11-03 22:53:00
7:14 PM,35.2,26.6,71,30.16,10.0,Calm,Calm,-,N/A,,Overcast,0,2012-11-03 23:14:00
7:33 PM,35.1,27.0,72,30.16,10.0,Calm,Calm,-,N/A,,Overcast,0,2012-11-03 23:33:00
7:53 PM,35.2,27.5,73,30.16,10.0,Calm,Calm,-,N/A,,Overcast,0,2012-11-03 23:53:00
8:14 PM,35.4,27.0,71,30.17,10.0,Calm,Calm,-,N/A,,Overcast,0,2012-11-04 00:14:00
8:33 PM,35.4,27.0,71,30.17,10.0,Calm,Calm,-,N/A,,Overcast,0,2012-11-04 00:33:00
8:53 PM,35.8,27.7,72,30.17,10.0,Calm,Calm,-,N/A,,Overcast,0,2012-11-04 00:53:00
9:14 PM,35.2,28.0,75,30.16,10.0,Calm,Calm,-,N/A,,Overcast,0,2012-11-04 01:14:00
9:33 PM,35.4,27.9,74,30.17,10.0,Calm,Calm,-,N/A,,Overcast,0,2012-11-04 01:33:00
9:53 PM,35.4,27.7,73,30.17,10.0,Calm,Calm,-,N/A,,Overcast,0,2012-11-04 01:53:00
10:14 PM,35.4,27.9,74,30.17,10.0,Calm,Calm,-,N/A,,Overcast,0,2012-11-04 02:14:00
10:33 PM,34.9,27.7,75,30.17,10.0,Calm,Calm,-,N/A,,Overcast,0,2012-11-04 02:33:00
10:53 PM,34.5,27.7,76,30.17,10.0,Calm,Calm,-,N/A,,Overcast,0,2012-11-04 02:53:00
11:13 PM,33.8,27.7,78,30.17,10.0,Calm,Calm,-,N/A,,Overcast,0,2012-11-04 03:13:00
11:34 PM,33.1,28.0,82,30.17,10.0,Calm,Calm,-,N/A,,Mostly Cloudy,0,2012-11-04 03:34:00
11:54 PM,32.5,27.7,82,30.17,10.0,Calm,Calm,-,N/A,,Scattered Clouds,0,2012-11-04 03:54:00